932  
ASUS45 KPSR 210810  
RWRAZ  
 
ARIZONA HOURLY REGIONAL WEATHER ROUNDUP  
NATIONAL WEATHER SERVICE PHOENIX AZ  
100 AM MST FRI JUL 21 2017  
 
NOTE: FAIR INDICATES FEW OR NO CLOUDS BELOW 12,000 FEET WITH NO  
SIGNIFICANT WEATHER AND/OR S TO VISIBILITY
.  
 
AZZ001>003-036-210900-  
NORTHWEST ARIZONA  
 
CITY SKY/WX TMP DP RH WIND PRES REMARKS
 
BULLHEAD CITY PTCLDY 97 61 30 SW6 29.80S  
KINGMAN CLEAR 76 59 55 SE13 30.04S  

 
 
AZZ004>008-015-016-018-210900-  
NORTH CENTRAL ARIZONA  
 
CITY SKY/WX TMP DP RH WIND PRES REMARKS
 
GRAND CANYON CLOUDY 63 58 83 CALM 30.28F  
WILLIAMS MOCLDY 61 55 82 NE3 30.29S  
PRESCOTT MOCLDY 66 58 75 S8 30.17F  
FLAGSTAFF MOCLDY 58 55 90 CALM 30.31F  
PAYSON CLEAR 70 61 73 E5 30.22S  
PAGE CLOUDY 76 59 55 SE16 30.09R  

 
 
AZZ009>014-017-210900-  
NORTHEAST ARIZONA  
 
CITY SKY/WX TMP DP RH WIND PRES REMARKS
 
WINSLOW MOCLDY 69 62 78 E7 30.17S  
SAINT JOHNS CLOUDY 66 61 84 SE6 30.22S  
WINDOW ROCK CLOUDY 66 53 63 CALM 30.30S  
SHOW LOW MOCLDY 61 55 82 S12 30.28S  

 
 
AZZ540-542>544-546-548-210900-  
GREATER PHOENIX AREA  
 
CITY SKY/WX TMP DP RH WIND PRES REMARKS
 
PHOENIX MOCLDY 85 67 54 SE12 29.89S  
BUCKEYE MOCLDY 88 66 48 SE7 29.88F  
LUKE AFB PTCLDY 87 67 51 SE7 29.88S  
DEER VALLEY MOCLDY 82 69 64 E7 29.92S  
SCOTTSDALE PTCLDY 82 68 62 SE5 29.94F  
MESA-GATEWAY MOCLDY 81 70 69 SE10 29.95R  

 
 
AZZ539-553-210900-  
SOUTHWEST MARICOPA COUNTY AND PINAL COUNTY  
 
CITY SKY/WX TMP DP RH WIND PRES REMARKS
 
CASA GRANDE PTCLDY 82 70 66 SE13 29.95S  
GILA BEND FAIR 89 68 49 SE6 29.86F  

 
 
AZZ503-504-507>509-210900-  
SOUTHEAST ARIZONA  
 
CITY SKY/WX TMP DP RH WIND PRES REMARKS
 
TUCSON HVY RAIN 75 69 81 SE5 30.06S  
DAVIS-MONTHAN MOCLDY 74 72 91 CALM 30.05S  
NOGALES CLOUDY 69 67 93 E3 30.12F  
SIERRA VISTA CLOUDY 68 65 89 CALM 30.18F  
DOUGLAS CLOUDY 70 66 87 E6 30.14F  
SAFFORD CLOUDY 75 66 73 NW5 30.06F  

 
 
AZZ532-210900-  
SOUTHWEST ARIZONA  
 
CITY SKY/WX TMP DP RH WIND PRES REMARKS
 
YUMA CLEAR 89 59 36 SE9 29.82S  

 
 
CAZ041-043-047-048-061-525>527-560>570-210900-  
SOUTHERN CALIFORNIA  
 
CITY SKY/WX TMP DP RH WIND PRES REMARKS
 
DOWNTOWN L.A. CLEAR 68 61 78 CALM 29.95S  
L.A. AIRPORT PTCLDY 68 65 90 W6 29.95F  
SAN DIEGO MOCLDY 70 62 76 SW3 29.97F  
BURBANK CLEAR 69 59 70 E7 29.95F  
ONTARIO CLEAR 68 61 78 W9 29.97S  
RIVERSIDE CLEAR 68 63 84 MISG 29.97S  
PALM SPRINGS CLEAR 87 53 31 CALM 29.84R  
EL CENTRO NAS CLEAR 87 64 46 CALM 29.80F  
IMPERIAL CLEAR 90 65 43 SE6 29.77F  
BLYTHE CLEAR 94 56 27 SW16 29.81F  
NEEDLES CLEAR 99 58 25 S9 29.82R  

 
 
NVZ020-UTZ003-210900-  
SOUTHERN NEVADA-UTAH  
 
CITY SKY/WX TMP DP RH WIND PRES REMARKS
 
LAS VEGAS MOCLDY 89 56 32 S7 29.87F  
SALT LAKE CITY MOCLDY 85 51 31 S20G28 29.98S  

 
 
NMZ009-TXZ055-210900-  
NEW MEXICO-WEST TEXAS  
 
CITY SKY/WX TMP DP RH WIND PRES REMARKS
 
ALBUQUERQUE CLOUDY 73 57 57 S13 30.23F  
EL PASO CLOUDY 73 67 81 NE3 30.10F  

 
 
   
.......................KEY.....................
 
 
SKY/WX - SKY CONDITION/WEATHER  
TMP - TEMPERATURE IN FAHRENHEIT  
DP - DEW POINT IN FAHRENHEIT  
RH - RELATIVE HUMIDITY IN PERCENT  
WIND - DIRECTION AND SPEED IN MILES PER HOUR (MPH)  
VRB - VARIABLE WIND DIRECTION  
PRES - MEAN SEA LEVEL PRESSURE IN INCHES OF MERCURY  
F - FALLING PRESSURE R - RISING PRESSURE  
S - STEADY PRESSURE  
VSB - VISIBILITY IN MILES  
HX - HEAT INDEX IN FAHRENHEIT  
WCI - WIND CHILL INDEX IN FAHRENHEIT  
TC - TEMPERATURE IN CELSIUS WHICH IS ALSO KNOWN AS  
TEMPERATURE IN CENTIGRADE  
AFB - AIR FORCE BASE  
LUKE AFB IS LUKE AIR FORCE BASE  
DAVIS-MONTHAN IS DAVIS-MONTHAN AIR FORCE BASE  
NAS - NAVAL AIR STATION  
EL CENTRO NAS IS EL CENTRO NAVAL AIR STATION  
N/A - NOT AVAILABLE  
 
 
 
CLICK HERE TO GO TO PREVIOUS BULLETINS.

The Nexlab AZ Page Main Text Page